Flag for China Weather past 2 weeks in Guangzhou, Guangdong, China

77 °F

Light rain. Partly sunny.

Feels Like: 78 °F
Forecast: 77 / 84 °F
Wind: 8 mph from East

Location: Canton Airport

Current Time: Oct 5, 2015 at 10:10:22 AM

Latest Report: Oct 5, 2015 at 9:30 AM

Visibility: 5 mi

Pressure: 30.01 "Hg

Humidity: 100%

Dew point: 77 °F

Location of GuangzhouLocation

Historic Weather in Guangzhou — Graph


Guangzhou temperature yesterday

Maximum temperature yesterday: 81 °F (at 2:00 AM)
Minimum temperature yesterday: 77 °F (at 6:30 AM)
Average temperature yesterday: 78 °F

Past Weeks' High & Low Weather Summary

High97 °F (Sep 25, 3:30 PM)100% (Sep 21, 6:30 AM)30.01 "Hg (Sep 21, 6:30 AM)
Low75 °F (Sep 20, 5:30 PM)44% (Sep 28, 2:00 PM)29.59 "Hg (Sep 25, 3:00 PM)
Average83 °F75%29.80 "Hg
* Reported Sep 20 9:00 AM — Oct 5 9:00 AM, Guangzhou, Weather by CustomWeather, © 2015

Note: Actual official high and low records may vary slightly from our data, if they occured in-between our weather recording intervals... More about our weather records


Guangzhou weather history for previous 24 hours

Time TempWeatherWind HumidityBarometerVisibility
9:00 AM
Mon, Oct 5
77 °FLight rain. Scattered clouds.10 mph94%30.01 "Hg5 mi
8:30 AM77 °FLight rain. More clouds than sun.8 mph100%29.98 "Hg5 mi
8:00 AM77 °FLight rain. Overcast.8 mph94%29.98 "Hg5 mi
7:30 AM77 °FLight rain. Overcast.8 mph94%29.98 "Hg5 mi
7:00 AM77 °FLight rain. Overcast.8 mph94%29.95 "Hg5 mi
6:30 AM77 °FLight rain. Overcast.8 mph94%29.95 "Hg5 mi
5:30 AM77 °FLight rain. Overcast.8 mph94%29.95 "HgN/A
5:00 AM77 °FLight rain. Overcast.8 mph94%29.95 "HgN/A
4:30 AM77 °FLight rain. Overcast.10 mph94%29.92 "HgN/A
4:00 AM77 °FLight rain. Overcast.10 mph94%29.92 "HgN/A
3:30 AM77 °FLight rain. Overcast.10 mph94%29.92 "HgN/A
3:00 AM77 °FLight rain. Overcast.8 mph94%29.92 "HgN/A
2:30 AM77 °FLight rain. Overcast.6 mph94%29.95 "HgN/A
2:00 AM77 °FLight rain. Overcast.6 mph94%29.92 "HgN/A
1:30 AM77 °FLight rain. Overcast.8 mph94%29.95 "HgN/A
1:00 AM77 °FLight rain. Overcast.10 mph94%29.95 "HgN/A
12:30 AM77 °FLight rain. Overcast.8 mph94%29.95 "HgN/A
12:00 AM77 °FLight rain. Overcast.8 mph94%29.98 "HgN/A
11:30 PM
Sun, Oct 4
77 °FLight rain. Overcast.6 mph94%29.98 "HgN/A
11:00 PM77 °FLight rain. Overcast.8 mph94%29.98 "HgN/A
10:30 PM77 °FLight rain. Overcast.8 mph94%29.98 "HgN/A
10:00 PM77 °FLight rain. Overcast.13 mph94%29.95 "HgN/A
9:30 PM77 °FLight rain. Overcast.10 mph94%29.95 "HgN/A
9:00 PM77 °FLight rain. Overcast.8 mph94%29.95 "HgN/A
8:30 PM77 °FLight rain. Overcast.6 mph94%29.95 "HgN/A
8:00 PM77 °FLight rain. Overcast.6 mph94%29.95 "Hg5 mi
7:30 PM77 °FLight rain. Mostly cloudy.6 mph94%29.95 "Hg4 mi
7:00 PM77 °FLight rain. Mostly cloudy.6 mph94%29.92 "Hg5 mi
6:30 PM77 °FLight rain. Mostly cloudy.10 mph94%29.92 "Hg5 mi
6:00 PM77 °FLight rain. More clouds than sun.8 mph94%29.92 "Hg5 mi
5:30 PM77 °FLight rain. More clouds than sun.8 mph94%29.92 "Hg4 mi
5:00 PM77 °FLight rain. More clouds than sun.8 mph100%29.92 "Hg4 mi
4:30 PM77 °FLight rain. Overcast.8 mph94%29.92 "Hg4 mi
4:00 PM79 °FLight rain. Scattered clouds.8 mph94%29.92 "Hg5 mi
3:30 PM77 °FLight rain. Broken clouds.8 mph100%29.89 "HgN/A
3:00 PM77 °FRain showers. Broken clouds.13 mph100%29.92 "Hg2 mi
2:30 PM77 °FHeavy rain. More clouds than sun.10 mph100%29.89 "Hg1 mi
2:00 PM79 °FLight rain. Broken clouds.8 mph94%29.89 "Hg5 mi
1:30 PM79 °FLight rain. Broken clouds.10 mph94%29.92 "HgN/A
1:00 PM79 °FLight rain. Scattered clouds.10 mph94%29.92 "HgN/A
11:30 AM77 °FLight rain. Broken clouds.8 mph100%29.95 "Hg2 mi
11:00 AM77 °FRain. Broken clouds.10 mph100%29.95 "Hg2 mi
10:30 AM77 °FLight rain. Broken clouds.6 mph100%29.95 "Hg3 mi
10:00 AM77 °FLight rain. Broken clouds.10 mph100%29.95 "Hg4 mi
Weather by CustomWeather, © 2015

See weather overviewHow to use our weather pages